Weather History for Mt. Pocono, PA

Change the Weather History Date:

Wednesday, March 26, 2014

  Actual Average Record
Temperature  
Mean Temperature 20 °F 37 °F  
Max Temperature 25 °F 46 °F 71 °F (1939)
Min Temperature 14 °F 28 °F -1 °F (1960)
Degree Days  
Heating Degree Days 45 28  
Month to date heating degree days 1026 813  
Since 1 July heating degree days 6453 5936  
Cooling Degree Days 0 0  
Month to date cooling degree days 0 0  
Year to date cooling degree days 0 0  
Moisture  
Dew Point 10 °F    
Average Humidity 67    
Maximum Humidity 88    
Minimum Humidity 45    
Precipitation  
Precipitation T in 0.15 in 1.30 in (2002)
Month to date precipitation 0.49 2.88  
Year to date precipitation 6.88 8.14  
Sea Level Pressure  
Sea Level Pressure 29.91 in    
Wind  
Wind Speed 20 mph (NW)    
Max Wind Speed 32 mph    
Max Gust Speed 47 mph    
Visibility 8 miles    
Events Snow    
T = Trace of Precipitation, MM = Missing Value Source: NWS Daily Summary

Daily Weather History Graph

Daily Weather History Graph

Search for Another Location

Airport:

Trip Planner

Search our weather history database for the weather conditions in past years. The results will help you decide how hot, cold, wet, or windy it might be!

Date:

Astronomy

Mar. 26, 2014 Rise Set
Actual Time 6:54 AM EDT 7:20 PM EDT
Civil Twilight 6:27 AM EDT 7:47 PM EDT
Nautical Twilight 5:54 AM EDT 8:20 PM EDT
Astronomical Twilight 5:21 AM EDT 8:53 PM EDT
Moon 4:04 AM EDT (3/26) 2:53 PM EDT (3/26)
Length of Visible Light 13h 20m
Length of Day
12h 25m
Waning Crescent, 22% of the Moon is Illuminated
Mar 26
Waning Crescent
Mar 30
New
Apr 7
First Quarter
Apr 15
Full
Apr 22
Last Quarter

Hourly Weather History & Observations

Time (EDT) Temp. Windchill Dew Point Humidity Pressure Visibility Wind Dir Wind Speed Gust Speed Precip Events Conditions
12:29 AM 25.0 °F 20.7 °F 21.0 °F 85% 29.78 in 7.0 mi North 3.5 mph - N/A   Overcast
12:42 AM 25.0 °F 20.7 °F 21.0 °F 85% 29.78 in 7.0 mi NNW 3.5 mph - N/A   Overcast
12:53 AM 25.0 °F 20.7 °F 21.0 °F 85% 29.85 in 6.0 mi NNW 3.5 mph - N/A   Overcast
1:53 AM 24.1 °F 18.2 °F 19.9 °F 84% 29.83 in 5.0 mi NNW 4.6 mph - N/A   Scattered Clouds
2:53 AM 24.1 °F 17.0 °F 19.9 °F 84% 29.82 in 7.0 mi NNW 5.8 mph - N/A   Clear
3:34 AM 24.1 °F 16.0 °F 19.9 °F 84% 29.74 in 7.0 mi NW 6.9 mph - N/A   Mostly Cloudy
3:53 AM 24.1 °F 15.2 °F 19.9 °F 84% 29.81 in 7.0 mi NNW 8.1 mph - N/A   Mostly Cloudy
4:53 AM 24.1 °F 10.1 °F 18.0 °F 77% 29.81 in 8.0 mi NNW 18.4 mph 28.8 mph N/A   Overcast
5:15 AM 23.0 °F 11.7 °F 17.1 °F 78% 29.74 in 9.0 mi NNW 11.5 mph 24.2 mph N/A   Overcast
5:50 AM 21.2 °F 6.8 °F 17.6 °F 86% 29.74 in 1.8 mi NNW 17.3 mph 26.5 mph 0.00 in Snow Light Snow
5:53 AM 21.9 °F 5.8 °F 17.1 °F 82% 29.82 in 1.5 mi NNW 23.0 mph 33.4 mph 0.00 in Snow Light Snow
6:03 AM 21.0 °F 5.7 °F 15.1 °F 78% 29.75 in 3.0 mi NNW 19.6 mph 32.2 mph 0.00 in Snow Light Snow
6:27 AM 19.9 °F 3.5 °F 10.9 °F 68% 29.75 in 10.0 mi NNW 21.9 mph 33.4 mph 0.00 in   Mostly Cloudy
6:53 AM 19.0 °F 2.0 °F 9.0 °F 65% 29.85 in 10.0 mi NNW 23.0 mph 38.0 mph 0.00 in   Clear
7:17 AM 18.0 °F 1.3 °F 9.0 °F 68% 29.79 in 10.0 mi North 20.7 mph 28.8 mph N/A   Mostly Cloudy
7:53 AM 18.0 °F 1.7 °F 9.0 °F 68% 29.89 in 6.0 mi NNW 19.6 mph 35.7 mph 0.00 in Snow Light Snow
8:53 AM 19.0 °F 2.4 °F 8.1 °F 62% 29.90 in 10.0 mi NNW 21.9 mph 34.5 mph 0.00 in   Mostly Cloudy
9:48 AM 19.4 °F 2.5 °F 8.6 °F 63% 29.85 in 8.0 mi NW 23.0 mph 36.8 mph 0.00 in Snow Light Snow
9:53 AM 19.0 °F 3.2 °F 8.1 °F 62% 29.94 in 9.0 mi NW 19.6 mph 34.5 mph 0.00 in Snow Light Snow
10:02 AM 19.0 °F 1.3 °F 6.1 °F 57% 29.85 in 10.0 mi NW 25.3 mph 41.4 mph 0.00 in   Scattered Clouds
10:53 AM 19.9 °F 2.2 °F 3.9 °F 50% 29.94 in 10.0 mi NW 26.5 mph 40.3 mph 0.00 in   Clear
11:53 AM 19.9 °F 2.2 °F 5.0 °F 52% 29.94 in 10.0 mi NW 26.5 mph 35.7 mph N/A   Scattered Clouds
12:53 PM 19.9 °F 1.5 °F 1.9 °F 46% 29.95 in 10.0 mi NW 28.8 mph 40.3 mph N/A   Partly Cloudy
1:53 PM 21.0 °F 2.7 °F 3.9 °F 48% 29.95 in 10.0 mi NW 29.9 mph 43.7 mph N/A   Mostly Cloudy
2:53 PM 21.0 °F 3.0 °F 6.1 °F 53% 29.96 in 4.0 mi NW 28.8 mph 41.4 mph 0.00 in Snow Light Snow
3:53 PM 21.0 °F 3.6 °F 3.9 °F 48% 29.97 in 10.0 mi NW 26.5 mph 41.4 mph 0.00 in   Overcast
4:53 PM 21.9 °F 6.2 °F 3.0 °F 44% 29.99 in 10.0 mi WNW 21.9 mph 42.6 mph N/A   Mostly Cloudy
5:53 PM 19.9 °F 3.5 °F 3.0 °F 48% 30.03 in 10.0 mi NW 21.9 mph 39.1 mph N/A   Mostly Cloudy
6:53 PM 19.9 °F 3.2 °F 3.0 °F 48% 30.07 in 10.0 mi NW 23.0 mph 33.4 mph N/A   Partly Cloudy
7:53 PM 18.0 °F 0.6 °F 3.0 °F 52% 30.09 in 10.0 mi NW 23.0 mph 32.2 mph N/A   Clear
8:53 PM 17.1 °F 2.5 °F 1.9 °F 52% 30.14 in 10.0 mi NW 15.0 mph 26.5 mph N/A   Clear
9:53 PM 16.0 °F 4.4 °F 1.9 °F 54% 30.18 in 10.0 mi NW 9.2 mph - N/A   Clear
10:53 PM 16.0 °F 0.1 °F 1.9 °F 54% 30.20 in 10.0 mi NW 17.3 mph 23.0 mph N/A   Clear
11:53 PM 15.1 °F -0.1 °F 1.9 °F 56% 30.22 in 10.0 mi NW 15.0 mph 25.3 mph N/A   Clear